Météo Nord-Pas-de-Calais   La météo au plus près de chez vous

Station météorologique

Observations météo à Brive-Souillac (19147)

19147001 295 m Dernier relevé à 04:00
12.8°C
Humidité 92 % Vent 0 km/h 1023.1 hPa

Journée consultée

Mardi 1 Septembre 2026

Synthèse de la journée

Périodes de référence en UTC

Température maximale

25.8°C

à 17:00

06h 06h

Température minimale

12.8°C

à 03:54

18h 18h

Rafale maximale

4 km/h

à 02:06

00h 00h

Précipitations

0 mm

Cumul quotidien

06h 06h

Graphiques de la journée

Heure locale Réduire

Données détaillées

Relevés météo

Pas de 6 minutes Afficher les relevés infra-horaires
Relevés météo détaillés à Brive-Souillac pour le Mardi 1 Septembre 2026
Heure Température °C Point de rosée °C Humidité % Vent moyen (raf.), km/h Précipitations mm Visibilité m Pression hPa
04:00 12.8 °C 12 °C 95 % 0 km/h (3 km/h) 0 mm0 mm 60000 m 1023 hPa
03:54 12.8 °C 11.9 °C 94 % 0 km/h (2 km/h) 0 mm0 mm 60000 m 1023 hPa
03:48 12.9 °C 12 °C 94 % 0 km/h (0 km/h) 0 mm0 mm 60000 m 1023 hPa
03:42 13 °C 12.1 °C 94 % 0 km/h (2 km/h) 0 mm0 mm 60000 m 1023 hPa
03:36 13.1 °C 12 °C 93 % 2 km/h (3 km/h) 0 mm0 mm 60000 m 1023 hPa
03:30 13.2 °C 12.1 °C 93 % 0 km/h (3 km/h) 0 mm0 mm 60000 m 1023.1 hPa
03:24 13.3 °C 12.2 °C 93 % 0 km/h (2 km/h) 0 mm0 mm 60000 m 1023 hPa
03:18 13.4 °C 12.1 °C 92 % 0 km/h (2 km/h) 0 mm0 mm 60000 m 1023 hPa
03:12 13.4 °C 12.1 °C 92 % 0 km/h (2 km/h) 0 mm0 mm 60000 m 1023.1 hPa
03:06 13.5 °C 12.2 °C 92 % 0 km/h (0 km/h) 0 mm0 mm 60000 m 1023.1 hPa
03:00 13.6 °C 12.3 °C 92 % 0 km/h (0 km/h) 0 mm0 mm 60000 m 1023.1 hPa
02:54 13.7 °C 12.3 °C 91 % 0 km/h (0 km/h) 0 mm0 mm 60000 m 1023.1 hPa
02:48 14 °C 12.4 °C 90 % 0 km/h (3 km/h) 0 mm0 mm 60000 m 1023.1 hPa
02:42 14.2 °C 12.6 °C 90 % 0 km/h (3 km/h) 0 mm0 mm 60000 m 1023 hPa
02:36 14.2 °C 12.8 °C 91 % 0 km/h (3 km/h) 0 mm0 mm 60000 m 1023 hPa
02:30 14.3 °C 12.7 °C 90 % 2 km/h (3 km/h) 0 mm0 mm 60000 m 1023 hPa
02:24 14.4 °C 12.6 °C 89 % 3 km/h (3 km/h) 0 mm0 mm 60000 m 1023 hPa
02:18 14.6 °C 12.6 °C 88 % 3 km/h (4 km/h) 0 mm0 mm 60000 m 1023 hPa
02:12 14.7 °C 12.7 °C 88 % 3 km/h (4 km/h) 0 mm0 mm 60000 m 1023 hPa
02:06 14.8 °C 12.8 °C 88 % 3 km/h (4 km/h) 0 mm0 mm 60000 m 1022.9 hPa
02:00 14.8 °C 12.8 °C 88 % 3 km/h (5 km/h) 0 mm0 mm 60000 m 1022.9 hPa
01:54 14.9 °C 12.8 °C 87 % 3 km/h (5 km/h) 0 mm0 mm 60000 m 1023 hPa
01:48 15.1 °C 12.8 °C 86 % 4 km/h (6 km/h) 0 mm0 mm 60000 m 1023 hPa
01:42 15.3 °C 12.8 °C 85 % 6 km/h (7 km/h) 0 mm0 mm 60000 m 1023 hPa
01:36 15.5 °C 13.2 °C 86 % 6 km/h (9 km/h) 0 mm0 mm 60000 m 1023 hPa
01:30 15.4 °C 13.1 °C 86 % 7 km/h (9 km/h) 0 mm0 mm 60000 m 1023 hPa
01:24 15.5 °C 13 °C 85 % 8 km/h (9 km/h) 0 mm0 mm 60000 m 1023.1 hPa
01:18 15.6 °C 12.9 °C 84 % 8 km/h (8 km/h) 0 mm0 mm 60000 m 1023.1 hPa
01:12 15.6 °C 12.9 °C 84 % 8 km/h (9 km/h) 0 mm0 mm 60000 m 1023.1 hPa
01:06 15.6 °C 13.1 °C 85 % 8 km/h (9 km/h) 0 mm0 mm 60000 m 1022.9 hPa
01:00 15.7 °C 13 °C 84 % 8 km/h (9 km/h) 0 mm0 mm 60000 m 1022.9 hPa
00:54 15.9 °C 13 °C 83 % 6 km/h (8 km/h) 0 mm0 mm 60000 m 1023 hPa
00:48 16.2 °C 12.9 °C 81 % 6 km/h (8 km/h) 0 mm0 mm 60000 m 1023 hPa
00:42 16.4 °C 12.9 °C 80 % 8 km/h (9 km/h) 0 mm0 mm 60000 m 1022.8 hPa
00:36 16.5 °C 13 °C 80 % 8 km/h (9 km/h) 0 mm0 mm 60000 m 1022.8 hPa
00:30 16.6 °C 13.1 °C 80 % 8 km/h (9 km/h) 0 mm0 mm 60000 m 1022.8 hPa
00:24 16.6 °C 13.1 °C 80 % 8 km/h (9 km/h) 0 mm0 mm 60000 m 1022.8 hPa
00:18 16.7 °C 13.2 °C 80 % 8 km/h (9 km/h) 0 mm0 mm 60000 m 1022.8 hPa
00:12 16.8 °C 13.3 °C 80 % 9 km/h (10 km/h) 0 mm0 mm 60000 m 1022.8 hPa
00:06 16.7 °C 13.4 °C 81 % 8 km/h (10 km/h) 0 mm0 mm 60000 m 1022.8 hPa
00:00 16.6 °C 13.5 °C 82 % 8 km/h (9 km/h) 0 mm0 mm 60000 m 1022.8 hPa

Données via Météo-France

Relevés météo à Brive-Souillac

Cette page rassemble les observations de la station de Brive-Souillac : température, humidité, vent, précipitations et pression atmosphérique. Les graphiques facilitent le suivi de la journée, tandis que le tableau donne accès aux mesures horaires et infra-horaires disponibles.

Pour replacer ces mesures dans leur contexte, consultez la climatologie de Brive-Souillac ainsi que ses normales et records. Retrouvez aussi la carte des observations météo en temps réel.